Powrót do katalogu

STARLINK-32165

AktywnyŁącznośćVLEO
NORAD 60599·PAYLOAD·🇺🇸 United States

Wystrzelony Aug 20, 2024 z Cape Canaveral Space Force Station

Loading…

Następne Przeloty (najbliższe 24 godziny)

TLE

ŚwieżeSource: CelesTrak SupGP

Epoka: Sep 14, 2026, 21:41 UTC

1 60599C 24150S   26257.90395833 -.00104690  00000+0 -30905-2 0  2570
2 60599  53.1592 147.7266 0001332  93.7239  23.7118 15.34469918    14

Śledź STARLINK-32165 w czasie rzeczywistym z AllMySat

Download on the App Store